EHI
0 2 4 5 4 3 2 1 0 0 0 0 0 0 0 0 0 0 0 0 0 1 2 2 1 1 2 1 0 0 0 0 0 0 0 0 0 0 0 1 1 1 2
0 1 3 3 3 2 1 0 0 0 0 0 0 0 0 0 0 0 0 0 0 0 1 1 0 1 1 1 0 0 0 0 0 0 0 0 0 0 1 1 2 2 2
0 0 1 1 1 1 0 0 0 0 0 0 0 0 0 0 1 1 0 0 0 0 0 0 0 0 1 1 0 0 0 0 0 0 0 0 1 1 1 1 2 2 2
0 0 0 0 0 0 0 0 1 1 1 1 0 1 1 1 2 2 1 1 0 0 0 0 0 0 0 1 0 0 0 0 0 0 0 0 1 2 1 0 1 1 1
0 0 0 1 0 0 0 0 1 2 2 2 2 2 2 3 4 3 2 1 0 0 0 0 0 0 0 0 0 0 0 0 0 0 0 0 1 2 2 1 0 0 0
0 0 0 0 0 0 0 0 1 1 2 2 3 2 3 4 5 4 1 0 0 0 0 0 0 0 0 0 0 0 0 0 0 0 0 0 1 3 3 2 0 0 0
0 0 0 0 0 0 0 0 0 0 1 2 2 1 1 3 4 2 0 0 0 0 0 0 0 0 0 0 0 0 0 0 0 0 0 1 2 3 3 1 0 0 0
0 0 0 0 0 0 0 0 0 0 0 1 1 0 0 1 2 1 0 0 0 1 1 1 0 0 0 0 0 0 0 0 0 0 0 1 3 3 2 1 0 0 0
0 0 0 0 0 0 0 0 0 0 0 0 0 0 0 1 2 1 1 1 1 2 2 2 1 1 0 0 0 0 1 2 1 0 0 1 3 4 2 1 2 2 1
0 0 0 0 0 0 0 0 0 0 0 0 0 0 0 1 1 1 1 2 3 3 3 3 3 2 1 0 0 1 2 2 1 0 0 1 3 3 1 1 3 4 3
0 0 0 0 0 0 0 0 0 0 0 0 0 0 0 0 0 0 1 2 3 3 3 3 3 3 1 0 1 2 2 1 0 0 0 2 3 2 1 1 2 3 2
0 0 0 0 0 0 0 0 0 0 0 0 0 0 0 0 0 0 1 2 2 2 2 3 3 2 1 1 1 2 1 0 0 0 2 4 4 3 1 0 0 1 1
0 0 0 0 1 1 0 0 0 0 0 0 0 0 0 0 0 0 0 1 1 1 1 1 2 1 1 1 2 2 1 1 0 1 4 7 6 3 1 0 0 0 1
0 0 0 0 1 2 1 1 1 0 0 1 2 1 1 1 1 1 1 1 1 1 1 1 1 1 0 1 2 2 2 2 1 2 7 10 8 4 1 0 0 1 2
0 0 0 0 1 2 2 2 2 1 1 1 2 3 2 2 3 3 4 4 2 1 1 2 2 1 0 1 1 1 2 3 3 4 8 11 9 6 2 1 1 2 3
0 0 1 1 0 1 2 2 2 1 2 1 2 3 3 3 4 4 5 4 2 1 1 2 2 1 1 1 1 2 2 3 5 6 8 10 10 7 5 4 4 5 5
0 0 1 1 1 2 2 2 1 1 1 1 2 3 3 3 3 3 2 2 1 1 2 2 2 1 2 4 4 4 3 4 6 8 9 10 10 9 9 9 8 6 5
0 0 1 1 3 4 5 4 2 1 1 2 2 2 2 1 1 1 0 0 1 1 2 3 4 3 4 5 6 5 5 6 7 8 9 11 12 12 12 13 12 8 6
0 1 2 2 4 5 6 5 4 3 2 1 1 1 0 0 0 0 0 0 0 1 2 4 5 6 6 6 6 6 6 7 8 8 9 11 12 12 12 13 13 11 9
1 2 4 5 5 5 5 5 5 3 2 0 0 0 1 1 1 0 0 1 1 2 4 5 6 7 7 7 7 6 5 6 7 7 7 8 9 8 8 9 10 9 8
2 4 7 6 6 5 4 5 5 4 3 1 1 1 2 2 2 1 1 2 3 4 5 6 7 6 7 7 6 4 2 2 3 3 3 4 5 5 4 5 6 5 5
3 5 7 7 5 3 4 5 6 7 6 3 2 2 2 2 2 2 2 2 3 4 5 6 7 6 5 5 4 2 0 0 0 1 1 1 2 2 1 1 3 5 5
4 5 6 6 4 3 4 5 7 9 7 4 2 2 2 2 2 2 2 1 1 2 4 5 6 5 4 4 3 2 1 0 0 0 0 0 1 1 0 0 2 5 5
5 4 6 7 7 6 6 6 7 8 6 3 2 3 4 4 2 1 1 2 2 3 4 4 4 4 3 3 3 4 4 2 1 0 1 1 1 2 1 0 1 3 3
5 5 7 9 10 10 9 7 7 6 4 2 2 3 4 3 2 1 2 5 6 6 6 5 5 5 3 3 3 3 4 3 1 1 1 2 2 2 2 1 1 1 2
6 7 8 9 11 12 10 8 6 4 3 2 2 3 3 2 2 1 3 7 8 7 7 8 8 7 6 3 2 2 2 2 1 1 1 1 2 2 2 2 1 2 4
Wind_Speed
4 6 8 7 10 11 11 11 10 11 12 12 12 12 12 12 13 13 14 14 14 13 13 13 13 13 13 13 13 12 12 11 11 11 11 10 10 9 9 9 8 9 11
5 7 9 8 10 11 11 11 10 11 11 11 12 12 12 12 13 13 13 13 13 13 13 12 12 12 13 12 12 11 11 10 10 10 10 10 9 8 8 6 4 9 10
7 8 9 8 10 10 11 11 11 11 11 11 11 11 12 12 13 13 13 12 12 12 12 12 11 11 12 12 11 10 10 10 9 8 8 7 9 8 8 8 9 10 9
7 7 9 10 10 10 10 11 11 11 11 11 11 11 11 12 12 13 13 12 12 12 11 11 11 11 10 10 10 9 9 9 8 7 5 6 7 9 8 9 8 9 9
7 8 10 9 10 10 10 10 10 11 11 11 11 11 11 12 12 13 13 12 12 11 11 10 10 10 9 10 10 9 9 8 7 5 4 4 6 9 8 8 8 8 8
7 8 11 8 9 9 9 10 10 10 10 10 11 10 11 11 12 12 12 12 11 11 10 10 9 8 8 9 9 9 8 7 7 4 4 4 6 8 7 7 7 7 7
8 8 10 9 9 8 9 10 10 11 10 10 10 10 11 11 11 11 11 11 10 10 9 9 8 7 9 9 9 9 7 5 3 3 3 4 6 7 6 6 7 6 6
8 8 10 10 9 9 10 10 10 10 10 10 10 10 10 10 10 9 10 10 9 8 8 8 7 7 7 8 8 8 6 6 4 4 3 4 7 6 6 6 6 6 6
7 7 8 8 9 11 10 9 9 9 9 9 9 10 10 10 9 9 9 8 8 7 7 7 6 7 7 7 7 6 5 4 3 2 3 4 8 6 6 6 6 6 6
7 6 6 6 6 7 9 10 9 9 9 8 9 9 9 9 9 9 9 8 7 7 6 6 6 6 6 7 6 5 5 6 3 3 2 5 8 7 7 6 7 6 7
6 6 5 6 6 6 7 9 9 9 9 8 8 9 7 6 7 8 8 7 6 6 6 5 5 5 6 8 8 6 6 3 2 2 2 8 7 7 7 7 7 7 7
6 6 5 5 5 6 5 5 4 5 6 4 4 5 4 4 3 4 9 7 6 5 6 6 5 6 6 5 8 8 4 3 2 2 4 9 7 7 7 7 7 7 8
6 6 6 6 4 4 4 4 3 3 3 4 5 4 3 3 4 3 4 6 5 6 5 6 6 3 2 1 2 2 2 2 1 2 5 9 7 7 7 7 7 8 8
6 6 6 6 5 4 3 3 3 3 3 3 4 3 3 2 2 3 2 2 3 2 2 2 2 1 1 2 2 2 2 2 1 1 5 9 8 7 8 7 8 8 8
5 5 6 5 5 4 4 2 3 3 2 3 3 3 3 3 3 3 2 1 2 2 2 2 1 1 2 3 2 2 2 2 2 2 3 9 9 8 8 8 8 8 9
5 5 5 5 5 4 4 3 3 3 3 2 2 3 2 2 2 2 2 2 1 1 1 1 1 2 2 2 2 2 3 3 2 3 2 6 10 9 8 8 8 8 9
5 5 6 5 5 5 4 3 3 3 3 2 2 3 2 2 2 2 2 2 1 1 1 2 2 2 3 2 3 3 3 3 3 3 4 3 5 10 10 8 8 8 8
5 5 5 5 6 5 4 2 2 2 2 2 2 3 3 2 2 2 1 1 1 1 1 2 2 2 2 2 2 2 2 3 4 4 4 4 3 4 7 10 9 8 8
5 5 5 4 5 5 5 4 3 2 2 1 2 2 2 2 2 2 1 1 2 1 1 2 1 2 2 2 3 3 3 3 3 4 3 4 4 4 4 7 10 8 8
6 6 5 5 5 5 4 4 3 2 2 2 1 1 1 1 2 2 2 2 2 1 1 1 1 2 2 2 3 2 3 3 3 3 4 3 3 5 4 4 5 7 9
6 6 6 5 5 4 3 3 3 3 2 2 2 2 1 1 1 2 1 2 2 1 1 1 2 2 2 2 3 3 3 3 2 2 3 3 3 4 3 4 4 3 4
7 7 6 5 5 5 3 2 1 1 1 1 1 1 1 1 1 2 2 2 2 2 2 1 2 2 2 1 3 3 2 2 2 2 2 2 3 3 4 4 3 3 4
8 7 6 6 6 5 4 3 3 3 2 2 1 1 1 1 1 1 1 2 2 2 1 1 2 2 2 2 2 3 3 2 2 2 2 2 2 3 3 3 4 3 4
9 8 7 7 6 6 5 4 4 2 2 1 1 1 1 1 1 1 2 1 2 1 1 2 1 2 3 3 1 2 3 3 4 3 2 2 2 3 3 3 3 3 3
9 9 8 8 7 7 6 5 5 3 2 1 1 1 1 1 1 1 1 1 2 1 1 2 2 3 3 4 3 2 2 3 5 5 4 3 3 2 2 3 3 3 3
9 9 8 8 7 7 7 5 5 4 3 2 2 1 2 2 1 1 1 1 2 1 2 3 3 4 3 4 4 4 3 3 3 4 5 5 4 3 2 2 3 3 3
Wind_Direction
106 108 105 115 115 117 115 113 116 120 125 129 134 137 137 136 135 133 131 130 132 132 129 128 128 126 124 123 123 123 121 121 120 120 122 122 125 125 128 133 144 119 114
102 107 109 114 117 116 116 116 118 122 126 128 131 134 136 135 135 133 132 133 133 132 131 128 127 127 127 125 124 124 124 124 124 126 132 131 129 127 128 124 90 103 120
104 112 120 113 115 117 120 121 124 123 127 127 128 130 133 134 134 133 131 133 134 132 130 127 124 125 124 123 123 123 125 124 127 142 166 145 127 127 126 121 111 121 126
106 115 111 109 113 115 117 119 121 122 122 124 125 127 130 132 133 133 133 131 131 130 128 126 125 124 124 125 125 124 123 124 138 177 173 130 130 127 132 130 130 132 132
105 108 107 111 112 113 116 118 121 120 120 122 124 126 127 129 128 130 132 129 128 127 124 125 125 127 129 128 129 129 129 136 162 196 123 125 122 126 137 139 138 139 138
108 109 110 114 110 111 114 116 121 121 121 121 123 123 124 126 127 128 130 129 128 126 124 125 126 130 135 133 133 134 139 159 195 142 134 134 119 129 143 148 145 145 145
106 106 111 114 111 111 113 116 118 120 123 124 123 122 124 125 126 128 128 126 124 124 125 126 129 132 134 137 139 141 150 187 200 134 138 119 109 130 147 154 153 151 151
109 112 116 124 120 118 119 118 117 116 119 121 120 124 124 125 125 126 126 126 126 125 125 132 136 141 142 143 146 151 166 217 174 152 148 126 118 144 156 162 161 161 161
111 111 113 126 129 129 124 121 119 117 119 119 120 122 124 123 125 127 129 129 130 130 130 134 138 145 148 150 152 154 170 232 232 159 161 131 134 159 170 174 175 172 173
111 113 115 114 118 131 133 130 127 124 124 122 122 125 131 137 137 141 143 131 131 134 139 142 140 145 148 154 154 160 183 224 214 169 161 126 145 171 184 188 188 187 189
113 114 120 122 130 132 126 132 142 140 136 142 138 140 158 152 143 149 122 127 132 134 142 145 144 153 162 163 165 178 209 222 174 184 138 121 158 179 192 198 197 198 198
124 123 122 121 129 130 127 131 142 140 136 140 128 142 140 127 121 119 125 136 140 144 154 151 158 181 207 170 165 190 213 202 212 178 129 140 170 188 198 204 202 207 208
130 126 124 120 121 124 129 132 123 122 131 138 133 140 130 144 141 143 147 156 161 175 171 161 183 192 197 171 193 198 209 236 209 185 135 155 180 195 205 212 212 216 217
131 126 124 125 128 124 117 121 136 131 135 129 131 148 140 136 139 134 153 148 166 162 157 182 183 179 210 213 212 229 229 236 226 194 137 163 187 202 210 214 216 220 222
142 138 131 133 128 134 132 139 128 122 121 124 134 135 142 148 149 147 149 171 178 153 173 185 198 203 222 217 228 224 249 248 244 244 154 169 188 204 213 219 220 223 227
152 145 142 146 139 140 142 133 121 122 127 129 133 132 151 143 140 153 169 182 188 178 160 220 217 221 234 238 241 239 249 251 239 249 231 177 189 202 213 221 225 228 229
154 147 151 153 148 149 145 145 133 126 124 123 130 142 163 159 151 174 175 183 170 181 185 229 239 237 227 225 233 241 239 245 249 246 252 240 200 196 205 216 222 227 230
147 145 152 157 148 148 146 148 130 115 121 133 141 142 154 161 174 197 185 175 172 203 213 208 225 243 246 253 251 257 243 232 243 243 242 236 240 225 199 204 216 222 230
149 148 152 157 151 149 147 149 145 134 138 144 137 129 141 171 178 210 195 124 213 219 233 249 152 272 266 269 256 241 249 242 247 246 248 246 237 241 237 191 202 215 228
148 151 153 159 156 155 155 151 153 149 156 155 135 121 153 166 183 224 187 189 227 211 220 254 269 256 271 275 280 282 265 259 251 247 248 238 231 236 240 242 213 206 212
153 154 157 159 154 166 168 173 162 162 167 155 141 127 155 180 175 230 242 181 230 208 219 236 256 240 254 278 271 265 244 229 235 239 244 259 246 243 240 244 249 254 208
162 162 161 165 163 173 161 173 174 171 175 136 117 131 200 190 225 218 231 236 211 211 208 234 249 281 276 265 288 286 267 218 211 235 247 245 264 258 244 238 245 244 261
171 172 169 170 168 174 171 179 176 179 193 171 167 166 182 198 227 278 235 249 236 244 188 234 250 268 289 280 286 300 301 326 318 218 243 258 269 278 266 253 239 237 242
176 172 172 172 172 171 181 190 196 195 193 164 201 143 167 171 205 222 236 228 247 259 225 249 219 258 267 276 245 255 293 318 297 295 239 230 242 255 271 273 265 241 238
177 174 172 171 173 175 184 191 207 211 206 204 201 156 215 181 201 216 216 214 226 251 260 276 264 261 267 279 286 275 267 252 256 278 292 294 272 259 263 262 267 266 248
178 178 174 170 175 179 187 196 208 214 219 233 231 217 217 193 185 146 200 212 228 256 244 248 253 247 268 286 286 282 276 277 281 278 281 282 286 282 270 268 262 257 253